,,PA_Meas_PMT16A,,PR_Meas_QMR101_102,,RH_Meas_QMH101,,SR_Meas_QMS101,,TA_Meas_QMH101,,GenWind,,GenWind,
time,status,PA,status,PR,status,RH,status,SR,status,TA,status,DirAvg,status,SpdAvg,
2012-09-03, 00:00:05,VALID,917.238,VALID,0,VALID,95.5062,VALID,0,VALID,20.7755,VALID,5,VALID,0,
2012-09-03, 00:01:05,VALID,917.273,VALID,0,VALID,95.6129,VALID,0,VALID,20.7771,VALID,5,VALID,0,
2012-09-03, 00:02:05,VALID,917.245,VALID,0,VALID,95.6815,VALID,0,VALID,20.7381,VALID,5,VALID,0,
2012-09-03, 00:03:05,VALID,917.243,VALID,0,VALID,95.6967,VALID,0,VALID,20.7185,VALID,5,VALID,0,
2012-09-03, 00:04:05,VALID,917.259,VALID,0,VALID,95.7196,VALID,0,VALID,20.6795,VALID,5,VALID,0,
2012-09-03, 00:05:05,VALID,917.243,VALID,0,VALID,95.8263,VALID,0,VALID,20.6795,VALID,5,VALID,0,
2012-09-03, 00:06:05,VALID,917.216,VALID,0,VALID,95.9178,VALID,0,VALID,20.6795,VALID,5,VALID,0,
2012-09-03, 00:07:05,VALID,917.229,VALID,0,VALID,95.9864,VALID,0,VALID,20.6585,VALID,5,VALID,0,
2012-09-03, 00:08:05,VALID,917.206,VALID,0,VALID,96.0245,VALID,0,VALID,20.66,VALID,5,VALID,0,
2012-09-03, 00:09:05,VALID,917.227,VALID,0,VALID,96.0017,VALID,0,VALID,20.6194,VALID,5,VALID,0,
2012-09-03, 00:10:05,VALID,917.23,VALID,0,VALID,96.0932,VALID,0,VALID,20.621,VALID,5,VALID,0,
2012-09-03, 00:11:05,VALID,917.24,VALID,0,VALID,96.1084,VALID,0,VALID,20.621,VALID,5,VALID,0,
2012-09-03, 00:12:05,VALID,917.227,VALID,0,VALID,96.1694,VALID,0,VALID,20.621,VALID,5,VALID,0,
2012-09-03, 00:13:05,VALID,917.239,VALID,0,VALID,96.1923,VALID,0,VALID,20.6015,VALID,5,VALID,0,
2012-09-03, 00:14:05,VALID,917.251,VALID,0,VALID,96.2685,VALID,0,VALID,20.5999,VALID,5,VALID,0,
2012-09-03, 00:15:05,VALID,917.215,VALID,0,VALID,96.2914,VALID,0,VALID,20.6015,VALID,5,VALID,0,
2012-09-03, 00:16:05,VALID,917.209,VALID,0,VALID,96.3219,VALID,0,VALID,20.582,VALID,5,VALID,0,
2012-09-03, 00:17:05,VALID,917.238,VALID,0,VALID,96.3981,VALID,0,VALID,20.621,VALID,5,VALID,0,
2012-09-03, 00:18:05,VALID,917.209,VALID,0,VALID,96.4515,VALID,0,VALID,20.621,VALID,5,VALID,0,
2012-09-03, 00:19:05,VALID,917.229,VALID,0,VALID,96.4972,VALID,0,VALID,20.6405,VALID,5,VALID,0,
2012-09-03, 00:20:05,VALID,917.237,VALID,0,VALID,96.5124,VALID,0,VALID,20.66,VALID,5,VALID,0,
2012-09-03, 00:21:05,VALID,917.213,VALID,0,VALID,96.5353,VALID,0,VALID,20.66,VALID,5,VALID,0,
2012-09-03, 00:22:05,VALID,917.196,VALID,0,VALID,96.5201,VALID,0,VALID,20.6405,VALID,5,VALID,0,
2012-09-03, 00:23:05,VALID,917.166,VALID,0,VALID,96.5429,VALID,0,VALID,20.66,VALID,5,VALID,0,
2012-09-03, 00:24:05,VALID,917.16,VALID,0,VALID,96.5353,VALID,0,VALID,20.6795,VALID,5,VALID,0,
2012-09-03, 00:25:05,VALID,917.135,VALID,0,VALID,96.5277,VALID,0,VALID,20.66,VALID,5,VALID,0,
2012-09-03, 00:26:05,VALID,917.125,VALID,0,VALID,96.5353,VALID,0,VALID,20.66,VALID,5,VALID,0,
2012-09-03, 00:27:05,VALID,917.089,VALID,0,VALID,96.5353,VALID,0,VALID,20.6795,VALID,5,VALID,0,
2012-09-03, 00:28:05,VALID,917.095,VALID,0,VALID,96.4591,VALID,0,VALID,20.66,VALID,36,VALID,0,
2012-09-03, 00:29:05,VALID,917.092,VALID,0,VALID,96.4743,VALID,0,VALID,20.66,VALID,123,VALID,0,
2012-09-03, 00:30:05,VALID,917.025,VALID,0,VALID,96.4591,VALID,0,VALID,20.66,VALID,123,VALID,0,
2012-09-03, 00:31:05,VALID,917.001,VALID,0,VALID,96.4438,VALID,0,VALID,20.621,VALID,123,VALID,0,
2012-09-03, 00:32:05,VALID,916.946,VALID,0,VALID,96.4515,VALID,0,VALID,20.6031,VALID,123,VALID,0,
2012-09-03, 00:33:05,VALID,916.929,VALID,0,VALID,96.4591,VALID,0,VALID,20.5625,VALID,127,VALID,0,
2012-09-03, 00:34:05,VALID,916.887,VALID,0,VALID,96.4972,VALID,0,VALID,20.5625,VALID,129,VALID,0,
2012-09-03, 00:35:05,VALID,916.864,VALID,0,VALID,96.5506,VALID,0,VALID,20.543,VALID,134,VALID,0,
2012-09-03, 00:36:05,VALID,916.864,VALID,0,VALID,96.5429,VALID,0,VALID,20.5235,VALID,136,VALID,0,
2012-09-03, 00:37:05,VALID,916.843,VALID,0,VALID,96.5734,VALID,0,VALID,20.5235,VALID,135,VALID,0,
2012-09-03, 00:38:05,VALID,916.819,VALID,0,VALID,96.5658,VALID,0,VALID,20.504,VALID,139,VALID,0,
2012-09-03, 00:39:05,VALID,916.827,VALID,0,VALID,96.6039,VALID,0,VALID,20.4845,VALID,139,VALID,0,
2012-09-03, 00:40:05,VALID,916.817,VALID,0,VALID,96.5963,VALID,0,VALID,20.504,VALID,140,VALID,0,
2012-09-03, 00:41:05,VALID,916.827,VALID,0,VALID,96.5811,VALID,0,VALID,20.4845,VALID,144,VALID,0,
2012-09-03, 00:42:05,VALID,916.834,VALID,0,VALID,96.5658,VALID,0,VALID,20.504,VALID,117,VALID,0,
2012-09-03, 00:43:05,VALID,916.815,VALID,0,VALID,96.5277,VALID,0,VALID,20.4845,VALID,144,VALID,0,
2012-09-03, 00:44:05,VALID,916.798,VALID,0,VALID,96.4362,VALID,0,VALID,20.465,VALID,139,VALID,0,
2012-09-03, 00:45:05,VALID,916.785,VALID,0,VALID,96.4362,VALID,0,VALID,20.486,VALID,151,VALID,0,
2012-09-03, 00:46:05,VALID,916.714,VALID,0,VALID,96.3829,VALID,0,VALID,20.465,VALID,143,VALID,0,
2012-09-03, 00:47:05,VALID,916.755,VALID,0,VALID,96.3295,VALID,0,VALID,20.465,VALID,122,VALID,0,
2012-09-03, 00:48:05,VALID,916.691,VALID,0,VALID,96.2914,VALID,0,VALID,20.465,VALID,112,VALID,0,
2012-09-03, 00:49:05,VALID,916.695,VALID,0,VALID,96.2533,VALID,0,VALID,20.465,VALID,116,VALID,0,
2012-09-03, 00:50:05,VALID,916.707,VALID,0,VALID,96.1923,VALID,0,VALID,20.4454,VALID,114,VALID,0,
2012-09-03, 00:51:05,VALID,916.692,VALID,0,VALID,96.1999,VALID,0,VALID,20.4259,VALID,117,VALID,0,
2012-09-03, 00:52:05,VALID,916.682,VALID,0,VALID,96.1618,VALID,0,VALID,20.4454,VALID,162,VALID,0,
2012-09-03, 00:53:05,VALID,916.681,VALID,0,VALID,96.0932,VALID,0,VALID,20.4454,VALID,136,VALID,0,
2012-09-03, 00:54:05,VALID,916.669,VALID,0,VALID,96.0627,VALID,0,VALID,20.4259,VALID,153,VALID,0,
2012-09-03, 00:55:05,VALID,916.641,VALID,0,VALID,96.0169,VALID,0,VALID,20.4454,VALID,145,VALID,0,
2012-09-03, 00:56:05,VALID,916.657,VALID,0,VALID,95.9712,VALID,0,VALID,20.447,VALID,150,VALID,0,
2012-09-03, 00:57:05,VALID,916.629,VALID,0,VALID,95.9407,VALID,0,VALID,20.4064,VALID,177,VALID,0,
2012-09-03, 00:58:05,VALID,916.632,VALID,0,VALID,95.9102,VALID,0,VALID,20.4259,VALID,177,VALID,0,
2012-09-03, 00:59:05,VALID,916.625,VALID,0,VALID,95.8873,VALID,0,VALID,20.4064,VALID,177,VALID,0,
2012-09-03, 01:00:05,VALID,916.599,VALID,0,VALID,95.7882,VALID,0,VALID,20.3869,VALID,177,VALID,0,
2012-09-03, 01:01:05,VALID,916.622,VALID,0,VALID,95.7806,VALID,0,VALID,20.3885,VALID,177,VALID,0,
2012-09-03, 01:02:05,VALID,916.598,VALID,0,VALID,95.7882,VALID,0,VALID,20.369,VALID,168,VALID,0,
2012-09-03, 01:03:05,VALID,916.574,VALID,0,VALID,95.8035,VALID,0,VALID,20.3479,VALID,148,VALID,0,
2012-09-03, 01:04:05,VALID,916.528,VALID,0,VALID,95.773,VALID,0,VALID,20.3479,VALID,148,VALID,0,
2012-09-03, 01:05:05,VALID,916.566,VALID,0,VALID,95.7882,VALID,0,VALID,20.3284,VALID,155,VALID,0,
2012-09-03, 01:06:05,VALID,916.576,VALID,0,VALID,95.7958,VALID,0,VALID,20.3089,VALID,176,VALID,0,
2012-09-03, 01:07:05,VALID,916.58,VALID,0,VALID,95.7882,VALID,0,VALID,20.2894,VALID,166,VALID,0,
2012-09-03, 01:08:05,VALID,916.566,VALID,0,VALID,95.7654,VALID,0,VALID,20.2714,VALID,153,VALID,0,
2012-09-03, 01:09:05,VALID,916.548,VALID,0,VALID,95.7425,VALID,0,VALID,20.2504,VALID,161,VALID,0,
2012-09-03, 01:10:05,VALID,916.555,VALID,0,VALID,95.7272,VALID,0,VALID,20.2714,VALID,161,VALID,0,
2012-09-03, 01:11:05,VALID,916.526,VALID,0,VALID,95.6891,VALID,0,VALID,20.2504,VALID,161,VALID,0,
2012-09-03, 01:12:05,VALID,916.525,VALID,0,VALID,95.6357,VALID,0,VALID,20.2699,VALID,161,VALID,0,
2012-09-03, 01:13:05,VALID,916.479,VALID,0,VALID,95.59,VALID,0,VALID,20.2699,VALID,158,VALID,0,
2012-09-03, 01:14:05,VALID,916.477,VALID,0,VALID,95.4452,VALID,0,VALID,20.2309,VALID,145,VALID,0,
2012-09-03, 01:15:05,VALID,916.454,VALID,0,VALID,95.3232,VALID,0,VALID,20.2309,VALID,141,VALID,0,
2012-09-03, 01:16:05,VALID,916.465,VALID,0,VALID,95.2393,VALID,0,VALID,20.2114,VALID,157,VALID,0,
2012-09-03, 01:17:05,VALID,916.462,VALID,0,VALID,95.125,VALID,0,VALID,20.2114,VALID,190,VALID,0,
2012-09-03, 01:18:05,VALID,916.452,VALID,0,VALID,94.9801,VALID,0,VALID,20.1919,VALID,159,VALID,0,
2012-09-03, 01:19:05,VALID,916.499,VALID,0,VALID,94.7667,VALID,0,VALID,20.2114,VALID,167,VALID,0,
2012-09-03, 01:20:05,VALID,916.474,VALID,0,VALID,94.66,VALID,0,VALID,20.2114,VALID,135,VALID,0,
2012-09-03, 01:21:05,VALID,916.436,VALID,0,VALID,94.5532,VALID,0,VALID,20.2114,VALID,170,VALID,0,
2012-09-03, 01:22:05,VALID,916.418,VALID,0,VALID,94.4922,VALID,0,VALID,20.2114,VALID,152,VALID,0,
2012-09-03, 01:23:05,VALID,916.376,VALID,0,VALID,94.4541,VALID,0,VALID,20.2114,VALID,170,VALID,0,
2012-09-03, 01:24:05,VALID,916.387,VALID,0,VALID,94.4541,VALID,0,VALID,20.1919,VALID,163,VALID,0,
2012-09-03, 01:25:05,VALID,916.332,VALID,0,VALID,94.477,VALID,0,VALID,20.2129,VALID,161,VALID,0,
2012-09-03, 01:26:05,VALID,916.342,VALID,0,VALID,94.4999,VALID,0,VALID,20.1724,VALID,164,VALID,0,
2012-09-03, 01:27:05,VALID,916.338,VALID,0,VALID,94.5913,VALID,0,VALID,20.1724,VALID,166,VALID,0,
2012-09-03, 01:28:05,VALID,916.31,VALID,0,VALID,94.6905,VALID,0,VALID,20.1739,VALID,133,VALID,0,
2012-09-03, 01:29:05,VALID,916.322,VALID,0,VALID,94.7133,VALID,0,VALID,20.1739,VALID,179,VALID,0,
2012-09-03, 01:30:05,VALID,916.291,VALID,0,VALID,94.7286,VALID,0,VALID,20.1334,VALID,171,VALID,0,
2012-09-03, 01:31:05,VALID,916.253,VALID,0,VALID,94.7362,VALID,0,VALID,20.1349,VALID,168,VALID,0,
2012-09-03, 01:32:05,VALID,916.263,VALID,0,VALID,94.7743,VALID,0,VALID,20.1154,VALID,166,VALID,0,
2012-09-03, 01:33:05,VALID,916.232,VALID,0,VALID,94.7819,VALID,0,VALID,20.0749,VALID,152,VALID,0,
2012-09-03, 01:34:05,VALID,916.241,VALID,0,VALID,94.8048,VALID,0,VALID,20.0764,VALID,175,VALID,0,
2012-09-03, 01:35:05,VALID,916.236,VALID,0,VALID,94.8353,VALID,0,VALID,20.0764,VALID,150,VALID,0,
2012-09-03, 01:36:05,VALID,916.264,VALID,0,VALID,94.7972,VALID,0,VALID,20.0764,VALID,129,VALID,0,
2012-09-03, 01:37:05,VALID,916.244,VALID,0,VALID,94.8048,VALID,0,VALID,20.0764,VALID,149,VALID,0,
2012-09-03, 01:38:05,VALID,916.254,VALID,0,VALID,94.8048,VALID,0,VALID,20.0764,VALID,169,VALID,0,
2012-09-03, 01:39:05,VALID,916.27,VALID,0,VALID,94.8048,VALID,0,VALID,20.0553,VALID,149,VALID,0,
2012-09-03, 01:40:05,VALID,916.26,VALID,0,VALID,94.7819,VALID,0,VALID,20.0553,VALID,137,VALID,0,
2012-09-03, 01:41:05,VALID,916.255,VALID,0,VALID,94.6676,VALID,0,VALID,20.0959,VALID,122,VALID,0,
2012-09-03, 01:42:05,VALID,916.26,VALID,0,VALID,94.6447,VALID,0,VALID,20.0749,VALID,120,VALID,0,
2012-09-03, 01:43:05,VALID,916.243,VALID,0,VALID,94.6066,VALID,0,VALID,20.1154,VALID,126,VALID,0,
2012-09-03, 01:44:05,VALID,916.222,VALID,0,VALID,94.5151,VALID,0,VALID,20.1154,VALID,132,VALID,0,
2012-09-03, 01:45:05,VALID,916.189,VALID,0,VALID,94.3855,VALID,0,VALID,20.1544,VALID,131,VALID,0,
2012-09-03, 01:46:05,VALID,916.133,VALID,0,VALID,94.2864,VALID,0,VALID,20.1529,VALID,142,VALID,0,
2012-09-03, 01:47:05,VALID,916.115,VALID,0,VALID,94.1721,VALID,0,VALID,20.1739,VALID,131,VALID,0,
2012-09-03, 01:48:05,VALID,916.099,VALID,0,VALID,94.0272,VALID,0,VALID,20.1529,VALID,125,VALID,0,
2012-09-03, 01:49:05,VALID,916.103,VALID,0,VALID,93.9357,VALID,0,VALID,20.1334,VALID,139,VALID,0,
2012-09-03, 01:50:05,VALID,916.1,VALID,0,VALID,93.8976,VALID,0,VALID,20.1139,VALID,132,VALID,0,
2012-09-03, 01:51:05,VALID,916.081,VALID,0,VALID,93.8671,VALID,0,VALID,20.1139,VALID,126,VALID,0,
2012-09-03, 01:52:05,VALID,916.085,VALID,0,VALID,93.9434,VALID,0,VALID,20.1334,VALID,144,VALID,0,
2012-09-03, 01:53:05,VALID,916.094,VALID,0,VALID,93.8747,VALID,0,VALID,20.1154,VALID,139,VALID,0,
2012-09-03, 01:54:05,VALID,916.084,VALID,0,VALID,93.8443,VALID,0,VALID,20.1154,VALID,142,VALID,0,
2012-09-03, 01:55:05,VALID,916.098,VALID,0,VALID,93.8443,VALID,0.107441,VALID,20.0749,VALID,152,VALID,0,
2012-09-03, 01:56:05,VALID,916.073,VALID,0,VALID,93.9129,VALID,0,VALID,20.0358,VALID,153,VALID,0,
2012-09-03, 01:57:05,VALID,916.055,VALID,0,VALID,93.9205,VALID,0,VALID,20.0569,VALID,145,VALID,0,
2012-09-03, 01:58:05,VALID,916.053,VALID,0,VALID,93.9434,VALID,0,VALID,20.0764,VALID,131,VALID,0,
2012-09-03, 01:59:05,VALID,916.04,VALID,0,VALID,93.951,VALID,0,VALID,20.0959,VALID,146,VALID,0,
2012-09-03, 02:00:05,VALID,916.037,VALID,0,VALID,93.8138,VALID,0,VALID,20.0959,VALID,136,VALID,0,
2012-09-03, 02:01:05,VALID,916.002,VALID,0,VALID,93.8595,VALID,0,VALID,20.0944,VALID,141,VALID,0,
2012-09-03, 02:02:05,VALID,916.016,VALID,0,VALID,93.7756,VALID,0,VALID,20.0959,VALID,141,VALID,0,
2012-09-03, 02:03:05,VALID,915.998,VALID,0,VALID,93.707,VALID,0,VALID,20.0358,VALID,141,VALID,0,
2012-09-03, 02:04:05,VALID,915.976,VALID,0,VALID,93.7756,VALID,0,VALID,19.9968,VALID,131,VALID,0,
2012-09-03, 02:05:05,VALID,915.971,VALID,0,VALID,93.8976,VALID,0,VALID,19.9984,VALID,133,VALID,0,
2012-09-03, 02:06:05,VALID,915.968,VALID,0,VALID,93.9205,VALID,0,VALID,19.9593,VALID,122,VALID,0,
2012-09-03, 02:07:05,VALID,915.948,VALID,0,VALID,94.1034,VALID,0,VALID,19.9398,VALID,120,VALID,0,
2012-09-03, 02:08:05,VALID,915.92,VALID,0,VALID,94.1187,VALID,0,VALID,19.9383,VALID,141,VALID,0,
2012-09-03, 02:09:05,VALID,915.92,VALID,0,VALID,94.1568,VALID,0,VALID,19.9398,VALID,124,VALID,0,
2012-09-03, 02:10:05,VALID,915.944,VALID,0,VALID,94.2254,VALID,0,VALID,19.9398,VALID,135,VALID,0,
2012-09-03, 02:11:05,VALID,915.935,VALID,0,VALID,94.2178,VALID,0,VALID,19.9203,VALID,126,VALID,0,
2012-09-03, 02:12:04,VALID,915.964,VALID,0,VALID,94.2635,VALID,0.107441,VALID,19.9203,VALID,126,VALID,0,
2012-09-03, 02:13:04,VALID,915.954,VALID,0,VALID,94.2254,VALID,0,VALID,19.9008,VALID,126,VALID,0,
2012-09-03, 02:14:04,VALID,915.949,VALID,0,VALID,94.294,VALID,0,VALID,19.9008,VALID,126,VALID,0,
2012-09-03, 02:15:04,VALID,915.914,VALID,0,VALID,94.3931,VALID,0,VALID,19.9008,VALID,119,VALID,0,
2012-09-03, 02:16:04,VALID,915.882,VALID,0,VALID,94.3779,VALID,0,VALID,19.8618,VALID,120,VALID,0,
2012-09-03, 02:17:04,VALID,915.876,VALID,0,VALID,94.4313,VALID,0,VALID,19.8618,VALID,120,VALID,0,
2012-09-03, 02:18:04,VALID,915.866,VALID,0,VALID,94.3855,VALID,0,VALID,19.8618,VALID,123,VALID,0,
2012-09-03, 02:19:04,VALID,915.879,VALID,0,VALID,94.4084,VALID,0,VALID,19.8423,VALID,109,VALID,0,
2012-09-03, 02:20:04,VALID,915.884,VALID,0,VALID,94.5227,VALID,0,VALID,19.8618,VALID,125,VALID,0,
2012-09-03, 02:21:04,VALID,915.892,VALID,0,VALID,94.4694,VALID,0,VALID,19.8423,VALID,125,VALID,0,
2012-09-03, 02:22:04,VALID,915.869,VALID,0,VALID,94.4999,VALID,0,VALID,19.8618,VALID,125,VALID,0,
2012-09-03, 02:23:04,VALID,915.857,VALID,0,VALID,94.4465,VALID,0,VALID,19.8018,VALID,117,VALID,0,
2012-09-03, 02:24:04,VALID,915.869,VALID,0,VALID,94.4999,VALID,0,VALID,19.8018,VALID,117,VALID,0,
2012-09-03, 02:25:04,VALID,915.889,VALID,0,VALID,94.4846,VALID,0,VALID,19.8033,VALID,117,VALID,0,
2012-09-03, 02:26:04,VALID,915.86,VALID,0,VALID,94.4846,VALID,0,VALID,19.7643,VALID,117,VALID,0,
2012-09-03, 02:27:04,VALID,915.888,VALID,0,VALID,94.538,VALID,0,VALID,19.7448,VALID,116,VALID,0,
2012-09-03, 02:28:04,VALID,915.896,VALID,0,VALID,94.5837,VALID,0,VALID,19.7253,VALID,107,VALID,0,
2012-09-03, 02:29:04,VALID,915.903,VALID,0,VALID,94.6371,VALID,0,VALID,19.7058,VALID,108,VALID,0,
2012-09-03, 02:30:04,VALID,915.887,VALID,0,VALID,94.7438,VALID,0,VALID,19.7058,VALID,110,VALID,0,
2012-09-03, 02:31:04,VALID,915.929,VALID,0,VALID,94.8353,VALID,0,VALID,19.7058,VALID,110,VALID,0,
2012-09-03, 02:32:04,VALID,915.909,VALID,0,VALID,94.8887,VALID,0,VALID,19.6863,VALID,110,VALID,0,
2012-09-03, 02:33:04,VALID,915.899,VALID,0,VALID,94.9115,VALID,0,VALID,19.7058,VALID,110,VALID,0,
2012-09-03, 02:34:04,VALID,915.918,VALID,0,VALID,94.8658,VALID,0,VALID,19.6863,VALID,110,VALID,0,
2012-09-03, 02:35:04,VALID,915.913,VALID,0,VALID,94.9496,VALID,0,VALID,19.6863,VALID,110,VALID,0,
2012-09-03, 02:36:04,VALID,915.919,VALID,0,VALID,94.9192,VALID,0,VALID,19.6863,VALID,110,VALID,0,
2012-09-03, 02:37:04,VALID,915.932,VALID,0,VALID,94.8277,VALID,0,VALID,19.6668,VALID,110,VALID,0,
2012-09-03, 02:38:04,VALID,915.931,VALID,0,VALID,94.8048,VALID,0,VALID,19.6668,VALID,110,VALID,0,
2012-09-03, 02:39:04,VALID,915.958,VALID,0,VALID,94.881,VALID,0,VALID,19.6473,VALID,110,VALID,0,
2012-09-03, 02:40:04,VALID,915.965,VALID,0,VALID,94.9115,VALID,0,VALID,19.6878,VALID,110,VALID,0,
2012-09-03, 02:41:04,VALID,915.976,VALID,0,VALID,94.9115,VALID,0,VALID,19.6863,VALID,110,VALID,0,
2012-09-03, 02:42:04,VALID,916.006,VALID,0,VALID,94.8963,VALID,0,VALID,19.7058,VALID,110,VALID,0,
2012-09-03, 02:43:04,VALID,915.966,VALID,0,VALID,94.8734,VALID,0,VALID,19.7253,VALID,110,VALID,0,
2012-09-03, 02:44:04,VALID,915.98,VALID,0,VALID,94.8429,VALID,0,VALID,19.7253,VALID,110,VALID,0,
2012-09-03, 02:45:04,VALID,915.954,VALID,0,VALID,94.8505,VALID,0,VALID,19.7448,VALID,110,VALID,0,
2012-09-03, 02:46:04,VALID,915.936,VALID,0,VALID,94.8277,VALID,0,VALID,19.7643,VALID,110,VALID,0,
2012-09-03, 02:47:04,VALID,915.921,VALID,0,VALID,94.7896,VALID,0,VALID,19.7838,VALID,110,VALID,0,
2012-09-03, 02:48:04,VALID,915.928,VALID,0,VALID,94.6981,VALID,0,VALID,19.8033,VALID,110,VALID,0,
2012-09-03, 02:49:04,VALID,915.91,VALID,0,VALID,94.3931,VALID,0,VALID,19.7643,VALID,110,VALID,0,
2012-09-03, 02:50:04,VALID,915.902,VALID,0,VALID,94.1797,VALID,0,VALID,19.7448,VALID,110,VALID,0,
2012-09-03, 02:51:04,VALID,915.902,VALID,0,VALID,94.0653,VALID,0,VALID,19.6863,VALID,110,VALID,0,
2012-09-03, 02:52:04,VALID,915.928,VALID,0,VALID,94.2254,VALID,0,VALID,19.6668,VALID,110,VALID,0,
2012-09-03, 02:53:04,VALID,915.908,VALID,0,VALID,94.477,VALID,0,VALID,19.6473,VALID,110,VALID,0,
2012-09-03, 02:54:04,VALID,915.887,VALID,0,VALID,94.7209,VALID,0,VALID,19.6473,VALID,110,VALID,0,
2012-09-03, 02:55:04,VALID,915.863,VALID,0,VALID,94.8658,VALID,0,VALID,19.6278,VALID,110,VALID,0,
2012-09-03, 02:56:04,VALID,915.901,VALID,0,VALID,95.0183,VALID,0,VALID,19.6278,VALID,110,VALID,0,
2012-09-03, 02:57:04,VALID,915.863,VALID,0,VALID,95.1326,VALID,0,VALID,19.6668,VALID,110,VALID,0,
2012-09-03, 02:58:04,VALID,915.902,VALID,0,VALID,95.2317,VALID,0,VALID,19.6863,VALID,110,VALID,0,
2012-09-03, 02:59:04,VALID,915.892,VALID,0,VALID,95.2546,VALID,0,VALID,19.7058,VALID,110,VALID,0,
2012-09-03, 03:00:04,VALID,915.893,VALID,0,VALID,95.2775,VALID,0,VALID,19.7058,VALID,110,VALID,0,
2012-09-03, 03:01:04,VALID,915.862,VALID,0,VALID,95.247,VALID,0,VALID,19.7253,VALID,110,VALID,0,
2012-09-03, 03:02:04,VALID,915.879,VALID,0,VALID,95.186,VALID,0,VALID,19.7448,VALID,110,VALID,0,
2012-09-03, 03:03:04,VALID,915.882,VALID,0,VALID,95.0716,VALID,0,VALID,19.7253,VALID,110,VALID,0,
2012-09-03, 03:04:04,VALID,915.91,VALID,0,VALID,94.9115,VALID,0,VALID,19.6863,VALID,110,VALID,0,
2012-09-03, 03:05:04,VALID,915.912,VALID,0,VALID,94.9573,VALID,0,VALID,19.6653,VALID,110,VALID,0,
2012-09-03, 03:06:04,VALID,915.913,VALID,0,VALID,94.9801,VALID,0,VALID,19.6653,VALID,110,VALID,0,
2012-09-03, 03:07:04,VALID,915.894,VALID,0,VALID,95.0183,VALID,0,VALID,19.6863,VALID,110,VALID,0,
2012-09-03, 03:08:04,VALID,915.899,VALID,0,VALID,95.0716,VALID,0,VALID,19.6863,VALID,110,VALID,0,
2012-09-03, 03:09:04,VALID,915.909,VALID,0,VALID,95.0411,VALID,0,VALID,19.7058,VALID,110,VALID,0,
2012-09-03, 03:10:04,VALID,915.898,VALID,0,VALID,94.9954,VALID,0,VALID,19.6863,VALID,110,VALID,0,
2012-09-03, 03:11:04,VALID,915.934,VALID,0,VALID,94.8582,VALID,0,VALID,19.6668,VALID,110,VALID,0,
2012-09-03, 03:12:04,VALID,915.873,VALID,0,VALID,94.7591,VALID,0,VALID,19.6473,VALID,110,VALID,0,
2012-09-03, 03:13:04,VALID,915.9,VALID,0,VALID,94.8887,VALID,0,VALID,19.6083,VALID,110,VALID,0,
2012-09-03, 03:14:04,VALID,915.912,VALID,0,VALID,95.0716,VALID,0,VALID,19.5888,VALID,110,VALID,0,
2012-09-03, 03:15:04,VALID,915.922,VALID,0,VALID,95.2165,VALID,0,VALID,19.5888,VALID,110,VALID,0,
2012-09-03, 03:16:04,VALID,915.918,VALID,0,VALID,95.3232,VALID,0,VALID,19.5693,VALID,110,VALID,0,
2012-09-03, 03:17:04,VALID,915.894,VALID,0,VALID,95.4452,VALID,0,VALID,19.5888,VALID,110,VALID,0,
2012-09-03, 03:18:04,VALID,915.902,VALID,0,VALID,95.4757,VALID,0,VALID,19.5693,VALID,110,VALID,0,
2012-09-03, 03:19:04,VALID,915.894,VALID,0,VALID,95.5519,VALID,0,VALID,19.5498,VALID,110,VALID,0,
2012-09-03, 03:20:04,VALID,915.883,VALID,0,VALID,95.7044,VALID,0,VALID,19.5693,VALID,110,VALID,0,
2012-09-03, 03:21:04,VALID,915.837,VALID,0,VALID,95.7654,VALID,0,VALID,19.6083,VALID,110,VALID,0,
2012-09-03, 03:22:04,VALID,915.825,VALID,0,VALID,95.7882,VALID,0,VALID,19.6278,VALID,110,VALID,0,
2012-09-03, 03:23:04,VALID,915.833,VALID,0,VALID,95.8187,VALID,0,VALID,19.6473,VALID,110,VALID,0,
2012-09-03, 03:24:04,VALID,915.829,VALID,0,VALID,95.7882,VALID,0,VALID,19.6668,VALID,111,VALID,0,
2012-09-03, 03:25:04,VALID,915.81,VALID,0,VALID,95.7272,VALID,0,VALID,19.6473,VALID,111,VALID,0,
2012-09-03, 03:26:04,VALID,915.812,VALID,0,VALID,95.6662,VALID,0,VALID,19.6278,VALID,111,VALID,0,
2012-09-03, 03:27:04,VALID,915.789,VALID,0,VALID,95.5976,VALID,0,VALID,19.6083,VALID,111,VALID,0,
2012-09-03, 03:28:04,VALID,915.815,VALID,0,VALID,95.651,VALID,0,VALID,19.5888,VALID,111,VALID,0,
2012-09-03, 03:29:04,VALID,915.782,VALID,0,VALID,95.6281,VALID,0,VALID,19.5693,VALID,111,VALID,0,
2012-09-03, 03:30:04,VALID,915.751,VALID,0,VALID,95.6205,VALID,0,VALID,19.5498,VALID,111,VALID,0,
2012-09-03, 03:31:04,VALID,915.714,VALID,0,VALID,95.5824,VALID,0,VALID,19.5303,VALID,111,VALID,0,
2012-09-03, 03:32:04,VALID,915.742,VALID,0,VALID,95.5595,VALID,0,VALID,19.5108,VALID,111,VALID,0,
2012-09-03, 03:33:04,VALID,915.722,VALID,0,VALID,95.59,VALID,0,VALID,19.4913,VALID,117,VALID,0,
2012-09-03, 03:34:04,VALID,915.708,VALID,0,VALID,95.5976,VALID,0,VALID,19.4718,VALID,122,VALID,0,
2012-09-03, 03:35:04,VALID,915.724,VALID,0,VALID,95.529,VALID,0,VALID,19.4118,VALID,122,VALID,0,
2012-09-03, 03:36:04,VALID,915.733,VALID,0,VALID,95.59,VALID,0,VALID,19.3923,VALID,124,VALID,0,
2012-09-03, 03:37:04,VALID,915.742,VALID,0,VALID,95.7196,VALID,0,VALID,19.3533,VALID,130,VALID,0,
2012-09-03, 03:38:04,VALID,915.726,VALID,0,VALID,95.8187,VALID,0,VALID,19.3338,VALID,130,VALID,0,
2012-09-03, 03:39:04,VALID,915.733,VALID,0,VALID,95.8797,VALID,0,VALID,19.2962,VALID,130,VALID,0,
2012-09-03, 03:40:04,VALID,915.716,VALID,0,VALID,95.9788,VALID,0,VALID,19.2767,VALID,131,VALID,0,
2012-09-03, 03:41:04,VALID,915.741,VALID,0,VALID,96.0779,VALID,0,VALID,19.2572,VALID,139,VALID,0,
2012-09-03, 03:42:04,VALID,915.713,VALID,0,VALID,96.1389,VALID,0,VALID,19.2377,VALID,139,VALID,0,
2012-09-03, 03:43:04,VALID,915.704,VALID,0,VALID,96.177,VALID,0,VALID,19.2182,VALID,139,VALID,0,
2012-09-03, 03:44:04,VALID,915.691,VALID,0,VALID,96.2075,VALID,0,VALID,19.2182,VALID,139,VALID,0,
2012-09-03, 03:45:04,VALID,915.68,VALID,0,VALID,96.2456,VALID,0,VALID,19.1973,VALID,139,VALID,0,
2012-09-03, 03:46:04,VALID,915.696,VALID,0,VALID,96.238,VALID,0,VALID,19.1792,VALID,139,VALID,0,
2012-09-03, 03:47:04,VALID,915.712,VALID,0,VALID,96.2609,VALID,0,VALID,19.1792,VALID,139,VALID,0,
2012-09-03, 03:48:04,VALID,915.749,VALID,0,VALID,96.3142,VALID,0,VALID,19.1987,VALID,139,VALID,0,
2012-09-03, 03:49:04,VALID,915.734,VALID,0,VALID,96.3066,VALID,0,VALID,19.1583,VALID,139,VALID,0,
2012-09-03, 03:50:04,VALID,915.74,VALID,0,VALID,96.3295,VALID,0,VALID,19.1778,VALID,139,VALID,0,
2012-09-03, 03:51:04,VALID,915.732,VALID,0,VALID,96.3219,VALID,0,VALID,19.1987,VALID,139,VALID,0,
2012-09-03, 03:52:04,VALID,915.735,VALID,0,VALID,96.3371,VALID,0,VALID,19.1792,VALID,139,VALID,0,
2012-09-03, 03:53:04,VALID,915.705,VALID,0,VALID,96.3219,VALID,0,VALID,19.1792,VALID,139,VALID,0,
2012-09-03, 03:54:04,VALID,915.682,VALID,0,VALID,96.2837,VALID,0,VALID,19.1388,VALID,139,VALID,0,
2012-09-03, 03:55:04,VALID,915.703,VALID,0,VALID,96.2685,VALID,0,VALID,19.1388,VALID,139,VALID,0,
2012-09-03, 03:56:04,VALID,915.696,VALID,0,VALID,96.2456,VALID,0,VALID,19.1597,VALID,139,VALID,0,
2012-09-03, 03:57:04,VALID,915.698,VALID,0,VALID,96.2151,VALID,0,VALID,19.1207,VALID,139,VALID,0,
2012-09-03, 03:58:04,VALID,915.711,VALID,0,VALID,96.2075,VALID,0,VALID,19.1207,VALID,139,VALID,0,
2012-09-03, 03:59:04,VALID,915.778,VALID,0,VALID,96.2609,VALID,0,VALID,19.1207,VALID,139,VALID,0,
2012-09-03, 04:00:04,VALID,915.787,VALID,0,VALID,96.1999,VALID,0,VALID,19.1207,VALID,139,VALID,0,